TimePDT,TemperatureF,Dew PointF,Humidity,Sea Level PressureIn,VisibilityMPH,Wind Direction,Wind SpeedMPH,Gust SpeedMPH,PrecipitationIn,Events,Conditions,WindDirDegrees,DateUTC
12:53 AM,57.9,46.0,65,29.93,10.0,NW,6.9,-,N/A,,Partly Cloudy,320,2013-03-27 07:53:00
1:53 AM,57.0,46.0,67,29.93,10.0,NW,10.4,-,N/A,,Clear,310,2013-03-27 08:53:00
2:53 AM,55.0,46.0,72,29.92,10.0,NW,10.4,-,N/A,,Clear,320,2013-03-27 09:53:00
3:53 AM,54.0,46.0,75,29.92,10.0,NW,10.4,-,N/A,,Clear,310,2013-03-27 10:53:00
4:53 AM,54.0,46.0,75,29.92,10.0,NNW,9.2,-,N/A,,Clear,330,2013-03-27 11:53:00
5:53 AM,52.0,45.0,77,29.93,10.0,NNW,6.9,-,N/A,,Clear,330,2013-03-27 12:53:00
6:53 AM,51.1,46.0,83,29.94,10.0,NNE,4.6,-,N/A,,Mostly Cloudy,30,2013-03-27 13:53:00
7:53 AM,52.0,46.0,80,29.96,10.0,NW,3.5,-,N/A,,Scattered Clouds,310,2013-03-27 14:53:00
8:53 AM,57.0,46.0,67,29.97,10.0,NNW,6.9,-,N/A,,Partly Cloudy,340,2013-03-27 15:53:00
9:53 AM,59.0,46.0,62,29.98,10.0,WNW,6.9,-,N/A,,Scattered Clouds,300,2013-03-27 16:53:00
10:53 AM,64.9,46.9,52,29.99,10.0,NW,5.8,-,N/A,,Clear,320,2013-03-27 17:53:00
11:53 AM,68.0,46.9,47,29.99,10.0,WNW,8.1,-,N/A,,Partly Cloudy,290,2013-03-27 18:53:00
12:53 PM,71.1,46.0,41,29.97,10.0,Calm,Calm,-,N/A,,Partly Cloudy,0,2013-03-27 19:53:00
1:53 PM,75.0,43.0,32,29.96,10.0,NNW,6.9,-,N/A,,Clear,330,2013-03-27 20:53:00
2:53 PM,77.0,44.1,31,29.94,10.0,NW,6.9,-,N/A,,Clear,310,2013-03-27 21:53:00
3:53 PM,75.9,42.1,30,29.92,10.0,Variable,3.5,-,N/A,,Clear,0,2013-03-27 22:53:00
4:53 PM,77.0,43.0,30,29.91,10.0,Variable,3.5,-,N/A,,Clear,0,2013-03-27 23:53:00
5:53 PM,75.9,43.0,31,29.91,9.0,Calm,Calm,-,N/A,,Clear,0,2013-03-28 00:53:00
6:53 PM,71.1,45.0,39,29.92,10.0,Calm,Calm,-,N/A,,Clear,0,2013-03-28 01:53:00
7:53 PM,66.9,46.0,47,29.93,10.0,Calm,Calm,-,N/A,,Clear,0,2013-03-28 02:53:00
8:53 PM,69.1,48.0,47,29.96,10.0,WNW,9.2,-,N/A,,Overcast,290,2013-03-28 03:53:00
9:53 PM,66.9,50.0,54,29.98,10.0,NNW,6.9,-,N/A,,Scattered Clouds,330,2013-03-28 04:53:00
10:53 PM,64.9,50.0,58,29.99,10.0,NNW,5.8,-,N/A,,Mostly Cloudy,340,2013-03-28 05:53:00
11:53 PM,62.1,50.0,65,30.01,10.0,NW,8.1,-,N/A,,Clear,320,2013-03-28 06:53:00